Regional Weather Roundup
Issued by NWS Charleston, SC

Current Version | Previous Version | Graphics & Text | Print | Product List | Glossary On
Versions: 1 2 3 4 5 6 7 8 9 10 11 12 13 14 15 16 17 18 19 20 21 22 23 24 25 26 27 28 29 30 31 32 33 34 35 36 37 38 39 40 41 42 43 44 45 46 47 48 49 50
000 ASUS42 KCHS 270810 RWRCHS REGIONAL WEATHER ROUNDUP NATIONAL WEATHER SERVICE CHARLESTON SC 300 AM EST THU NOV 27 2014 NOTE: "FAIR" INDICATES FEW OR NO CLOUDS BELOW 12,000 FEET WITH NO SIGNIFICANT WEATHER AND/OR OBSTRUCTIONS TO VISIBILITY. NOT ALL STATIONS ARE QUALITY CONTROLLED BY THE NATIONAL WEATHER SERVICE. USE DATA WITH CAUTION...ESPECIALLY DEWPOINT OBSERVATIONS. SCZ027-030-031-034>040-042>050-270900- ...SOUTHEAST SOUTH CAROLINA... CITY SKY/WX TMP DP RH WIND PRES REMARKS N CHARLESTON CLEAR 43 37 79 SW7 30.12R WATERFRONT PRK N/A 46 N/A N/A SW6 N/A MOUNT PLEASANT FAIR 46 37 71 SW6 30.12S JOHNS ISLAND SUNNY 45 43 93 W3 30.13S PINOPOLIS N/A 46 39 76 SW6 30.03R MONCKS CORNER FAIR 43 41 93 SW6 30.11S SUMMERVILLE FAIR 41 39 93 S3 30.12S BEAUFORT MCAS CLEAR 46 36 68 SW10 30.12F BEAUFORT ARPT FAIR 50 37 62 SW9 30.12F HILTON HEAD IS CLEAR 46 37 71 SW7 30.15S WALTERBORO SUNNY 43 39 87 SW5 30.11F ALLENDALE FAIR 43 36 75 CALM 30.09F ...SOUTHERN MIDLANDS AND PEE DEE... CITY SKY/WX TMP DP RH WIND PRES REMARKS GEORGETOWN NOT AVBL KINGSTREE NOT AVBL ORANGEBURG MOCLDY 41 35 79 SW7 30.09S BARNWELL FAIR 43 36 75 S3 30.08F AIKEN PTSUNNY 45 32 61 S8 30.07F MANNING NOT AVBL COLUMBIA CLOUDY 43 35 73 CALM 30.04F SUMTER CLOUDY 44 31 61 W8 30.05F FLORENCE PTCLDY 42 39 89 S5 30.06F MYRTLE BEACH CLEAR 45 39 81 W7 30.10R N MYRTLE BEACH CLEAR 43 41 93 W6 30.09R $$ GAZ063-065-086>088-099>101-113>116-118-119-134>141-150-270900- ...SOUTHEAST GEORGIA... CITY SKY/WX TMP DP RH WIND PRES REMARKS SAVANNAH ARPT CLEAR 44 35 70 S7 30.14F HUNTER AAF CLEAR 44 36 73 SW7 30.12F FORT STEWART CLEAR 42 36 80 S2 30.14S STATESBORO NOT AVBL SYLVANIA SUNNY 45 37 73 CALM 30.11F CLAXTON FAIR 45 27 49 SW3 30.13S ...CSRA...CENTRAL AND FAR SOUTHEAST GEORGIA... CITY SKY/WX TMP DP RH WIND PRES REMARKS THOMSON CLEAR 47 38 71 SW9G16 30.10F AUGUSTA-BUSH PTCLDY 42 31 64 SW8 30.08S AUGUSTA-DANIEL PTCLDY 46 31 55 SW7 30.06F SWAINSBORO FAIR 46 37 71 W8 30.12R VIDALIA CLEAR 43 37 81 SW7 30.13R HAZLEHURST FAIR 47 39 75 SW6 30.14R ALMA CLEAR 42 35 76 SW6 30.15F WAYCROSS CLEAR 45 39 80 SW6 30.18R JESUP FAIR 41 37 87 CALM 30.16F BAXLEY FAIR 50 36 57 W6 30.14F BRUNSWICK CLEAR 45 36 70 SW6 30.19R SAINT SIMONS CLEAR 46 37 71 SW6 30.18S $$ SCZ027-028-034-036>038-045-046-048>050-GAZ119-141-270900- ...LAKE AND SUPPLEMENTAL COASTAL OBSERVATIONS... STATION/POSITION TIME TEMP WIND PRES WAVE SWELL AIR SEA DIR/SP/G HT/PER HT/PER/DIR (UTC) (F) (DEG/KT/KT) (MB) (FT/S) (FT/S/D) UPR LAKE MARION NOT AVBL WINYAH BAY 0700 45 250/ 4 1019.0S LAKE MURRAY 0700 51 230/ 8/ 12 1016.9F ACE BASIN NERRS 0700 43 CALM 1020.0S FORT PULASKI 0800 48 220/ 4/ 6 1021.0S SAPELO ISLAND 0700 50 230/ 9 1022.0S $$ ANZ835-935-AMZ111-154-330-350-352-354-370-450-454-472-270900- ...C-MAN AND BUOY OBSERVATIONS... STATION/POSITION TIME TEMP WIND PRES WAVE SWELL AIR SEA DIR/SP/G HT/PER HT/PER/DIR (UTC) (F) (DEG/KT/KT) (MB) (FT/S) (FT/S/D) FOLLY BEACH CMAN 0700 48 240/ 6/ 8 1020.4F BUOY 41004 0800 60 74 280/ 17/ 23 1019.3S 5/ 5 2/ 9 BUOY 41008 0800 57 64 260/ 16/ 19 1021.2F 3/ 4 2/100/10 CAPERS NEARSHORE 0700 54 270/ 16/ 19 N/A FRIPP NEARSHORE NOT AVBL STATION/POSITION TIME TEMP WIND PRES WAVE SWELL AIR SEA DIR/SP/G HT/PER HT/PER/DIR (UTC) (F) (DEG/KT/KT) (MB) (FT/S) (FT/S/D) 5E ST. MARYS GA 0700 62 N/A 2/11 FRYING PAN BUOY 0800 58 71 270/ 12/ 19 1019.2F 4/ 9 3/140/ 9 BUOY 41025 0800 47 290/ 14/ 17 1018.8R 8/ 9 7/160/ 9 CAPE LOOKOUT NC 0700 44 340/ 5/ 6 1019.1R BUOY 41002 0657 66 73 300/ 17/ 21 1018.9R 10/ 9 7/270/ 9 BUOY 41010 0800 68 77 320/ 12/ 17 1021.0R 7/ 7 5/350/ 7 ST AUGUSTINE FL 0800 48 270/ 6/ 8 1023.5F $$

USA.gov is the U.S. government's official web portal to all federal, state and local government web resources and services.